GFSNIL_prec_kuchsnow_180.txt.gz
Snowfall_Accumulation
0.0 0.0 0.0 0.0 0.0 0.0 0.0 0.0 0.0 0.0 0.0 0.0 0.0 0.0 0.0 0.0 0.0 0.0 0.0 0.0 0.0 0.8
0.0 0.0 0.0 0.0 0.0 0.0 0.0 0.0 0.0 0.0 0.0 0.0 0.0 0.0 0.0 0.0 0.0 0.0 0.0 0.0 0.0 0.0
0.0 0.0 0.0 0.0 0.0 0.0 0.0 0.0 0.0 0.0 0.0 0.0 0.0 0.0 0.0 0.0 0.0 0.0 0.0 0.0 0.0 0.0
0.0 0.0 0.0 0.0 0.0 0.0 0.0 0.0 0.0 0.0 0.0 0.0 0.0 0.0 0.0 0.0 0.0 0.0 0.0 0.0 0.0 0.0
0.0 0.0 0.2 0.0 0.0 0.0 0.0 0.0 0.0 0.0 0.0 0.0 0.1 0.1 0.2 0.2 0.1 0.1 0.1 0.1 0.0 0.0
0.0 0.7 0.3 0.4 0.4 0.2 0.3 0.1 0.2 0.2 0.3 0.3 0.2 0.6 0.9 0.7 0.0 0.4 0.6 0.4 0.3 0.1
0.4 0.6 1.0 1.3 0.6 0.6 0.7 0.4 0.3 0.4 0.5 0.4 0.5 1.8 1.5 1.7 1.3 1.3 1.6 1.6 1.3 0.9
0.0 0.1 0.2 0.2 0.5 1.0 0.8 0.5 0.4 0.8 0.7 0.9 1.2 2.0 3.6 3.6 3.6 2.9 4.3 3.8 2.9 2.8
0.0 0.0 0.1 0.1 0.1 0.1 0.8 0.8 0.7 0.5 0.4 1.1 1.7 2.5 3.0 4.3 5.4 4.5 2.9 4.1 4.4 3.5
0.0 0.0 0.0 0.0 0.0 0.0 0.0 0.1 1.0 1.2 1.0 0.5 0.5 1.5 1.5 2.0 4.6 6.4 6.3 5.1 4.0 3.6
0.0 0.0 0.0 0.0 0.0 0.0 0.0 0.0 0.0 0.1 0.2 0.0 0.5 0.5 0.4 0.5 0.5 1.9 5.0 5.5 4.8 4.1
0.0 0.0 0.0 0.0 0.0 0.0 0.0 0.0 0.0 0.0 0.0 0.0 0.0 0.1 0.2 0.1 0.2 0.8 0.7 1.4 3.2 4.0
0.0 0.0 0.0 0.0 0.0 0.0 0.0 0.0 0.0 0.1 0.0 0.0 0.0 0.0 0.3 0.2 1.0 2.2 0.6 0.2 1.1 3.8
0.0 0.0 0.0 0.0 0.0 0.0 0.0 0.0 0.1 0.1 0.0 0.0 0.0 0.0 0.4 0.4 1.4 2.9 3.8 2.4 2.6 2.0

GFSNIL_prec_kuchsnow_183.txt.gz
Snowfall_Accumulation
0.0 0.0 0.0 0.0 0.0 0.0 0.0 0.0 0.0 0.0 0.0 0.0 0.0 0.0 0.0 0.0 0.0 0.0 0.0 0.0 0.0 0.8
0.0 0.0 0.0 0.0 0.0 0.0 0.0 0.0 0.0 0.0 0.0 0.0 0.0 0.0 0.0 0.0 0.0 0.0 0.0 0.0 0.0 0.0
0.0 0.0 0.0 0.0 0.0 0.0 0.0 0.0 0.0 0.0 0.0 0.0 0.0 0.0 0.0 0.0 0.0 0.0 0.0 0.0 0.0 0.0
0.0 0.0 0.0 0.0 0.0 0.0 0.0 0.0 0.0 0.0 0.0 0.0 0.0 0.0 0.0 0.0 0.0 0.0 0.0 0.0 0.0 0.0
0.0 0.0 0.2 0.0 0.0 0.0 0.0 0.0 0.0 0.0 0.0 0.0 0.1 0.1 0.2 0.2 0.1 0.1 0.1 0.1 0.0 0.0
0.0 0.7 0.3 0.4 0.4 0.2 0.3 0.1 0.2 0.2 0.3 0.3 0.2 0.6 0.9 0.7 0.0 0.4 0.6 0.4 0.3 0.1
0.4 0.6 1.0 1.3 0.6 0.6 0.7 0.4 0.3 0.4 0.5 0.4 0.5 1.8 1.5 1.7 1.3 1.3 1.6 1.6 1.3 0.9
0.0 0.1 0.2 0.2 0.5 1.0 0.8 0.5 0.4 0.8 0.7 0.9 1.2 2.0 3.6 3.6 3.6 2.9 4.3 3.8 2.9 2.8
0.0 0.0 0.1 0.1 0.1 0.1 0.8 0.8 0.7 0.5 0.4 1.1 1.7 2.5 3.0 4.3 5.4 4.5 2.9 4.1 4.4 3.5
0.0 0.0 0.0 0.0 0.0 0.0 0.0 0.1 1.0 1.2 1.0 0.5 0.5 1.5 1.5 2.0 4.6 6.4 6.3 5.1 4.0 3.6
0.0 0.0 0.0 0.0 0.0 0.0 0.0 0.0 0.0 0.1 0.2 0.0 0.5 0.5 0.4 0.5 0.5 1.9 5.0 5.5 4.8 4.1
0.1 0.0 0.0 0.0 0.0 0.0 0.0 0.0 0.0 0.0 0.0 0.0 0.0 0.1 0.2 0.1 0.2 0.8 0.7 1.4 3.2 4.0
0.0 0.0 0.0 0.0 0.0 0.0 0.0 0.0 0.0 0.1 0.0 0.0 0.0 0.0 0.3 0.2 1.0 2.2 0.6 0.2 1.1 3.8
0.0 0.0 0.0 0.0 0.0 0.0 0.0 0.0 0.1 0.1 0.0 0.0 0.0 0.0 0.4 0.4 1.4 2.9 3.8 2.4 2.6 2.0

GFSNIL_prec_kuchsnow_186.txt.gz
Snowfall_Accumulation
0.0 0.0 0.0 0.0 0.0 0.0 0.0 0.0 0.0 0.0 0.0 0.0 0.0 0.0 0.0 0.0 0.0 0.0 0.0 0.0 0.0 0.8
0.0 0.0 0.0 0.0 0.0 0.0 0.0 0.0 0.0 0.0 0.0 0.0 0.0 0.0 0.0 0.0 0.0 0.0 0.0 0.0 0.0 0.0
0.0 0.0 0.0 0.0 0.0 0.0 0.0 0.0 0.0 0.0 0.0 0.0 0.0 0.0 0.0 0.0 0.0 0.0 0.0 0.0 0.0 0.0
0.0 0.0 0.0 0.0 0.0 0.0 0.0 0.0 0.0 0.0 0.0 0.0 0.0 0.0 0.0 0.0 0.0 0.0 0.0 0.0 0.0 0.0
0.0 0.0 0.2 0.0 0.0 0.0 0.0 0.0 0.0 0.0 0.0 0.0 0.1 0.1 0.2 0.2 0.1 0.1 0.1 0.1 0.0 0.0
0.0 0.7 0.3 0.4 0.4 0.2 0.3 0.1 0.2 0.2 0.3 0.3 0.2 0.6 0.9 0.7 0.0 0.4 0.6 0.4 0.3 0.1
0.4 0.6 1.0 1.3 0.6 0.6 0.7 0.4 0.3 0.4 0.5 0.4 0.5 1.8 1.5 1.7 1.3 1.3 1.6 1.6 1.3 0.9
0.0 0.1 0.2 0.2 0.5 1.0 0.8 0.5 0.4 0.8 0.7 0.9 1.2 2.0 3.6 3.6 3.6 2.9 4.3 3.8 2.9 2.8
0.0 0.0 0.1 0.1 0.1 0.1 0.8 0.8 0.7 0.5 0.4 1.1 1.7 2.5 3.0 4.3 5.4 4.5 2.9 4.1 4.4 3.5
0.0 0.0 0.0 0.0 0.0 0.1 0.0 0.1 1.0 1.2 1.0 0.5 0.5 1.5 1.5 2.0 4.6 6.4 6.3 5.1 4.0 3.6
0.0 0.0 0.0 0.6 0.2 0.0 0.0 0.0 0.0 0.1 0.2 0.0 0.5 0.5 0.4 0.5 0.5 1.9 5.0 5.5 4.8 4.1
0.1 0.0 1.6 0.7 0.1 0.0 0.0 0.0 0.0 0.0 0.0 0.0 0.0 0.1 0.2 0.1 0.2 0.8 0.7 1.4 3.2 4.0
2.5 2.2 1.2 0.3 0.1 0.0 0.0 0.0 0.0 0.1 0.0 0.0 0.0 0.0 0.3 0.2 1.0 2.2 0.6 0.2 1.1 3.8
1.8 1.0 0.2 0.0 0.0 0.0 0.0 0.0 0.1 0.1 0.0 0.0 0.0 0.0 0.4 0.4 1.4 2.9 3.8 2.4 2.6 2.0

GFSNIL_prec_kuchsnow_189.txt.gz
Snowfall_Accumulation
0.0 0.0 0.0 0.0 0.0 0.0 0.0 0.0 0.0 0.0 0.0 0.0 0.0 0.0 0.0 0.0 0.0 0.0 0.0 0.0 0.0 0.8
0.0 0.0 0.0 0.0 0.0 0.0 0.0 0.0 0.0 0.0 0.0 0.0 0.0 0.0 0.0 0.0 0.0 0.0 0.0 0.0 0.0 0.0
0.0 0.0 0.0 0.0 0.0 0.0 0.0 0.0 0.0 0.0 0.0 0.0 0.0 0.0 0.0 0.0 0.0 0.0 0.0 0.0 0.0 0.0
0.0 0.0 0.0 0.0 0.0 0.0 0.0 0.0 0.0 0.0 0.0 0.0 0.0 0.0 0.0 0.0 0.0 0.0 0.0 0.0 0.0 0.0
0.0 0.0 0.2 0.0 0.0 0.0 0.0 0.0 0.0 0.0 0.0 0.0 0.1 0.1 0.2 0.2 0.1 0.1 0.1 0.1 0.0 0.0
0.0 0.7 0.3 0.4 0.4 0.2 0.3 0.1 0.2 0.2 0.3 0.3 0.2 0.6 0.9 0.7 0.0 0.4 0.6 0.4 0.3 0.1
0.4 0.6 1.0 1.3 0.6 0.6 0.7 0.4 0.3 0.4 0.5 0.4 0.5 1.8 1.5 1.7 1.3 1.3 1.6 1.6 1.3 0.9
0.0 0.1 0.2 0.2 0.5 1.0 0.8 0.5 0.4 0.8 0.7 0.9 1.2 2.0 3.6 3.6 3.6 2.9 4.3 3.8 2.9 2.8
0.0 0.0 0.1 0.1 0.1 0.1 0.8 0.8 0.7 0.5 0.4 1.1 1.7 2.5 3.0 4.3 5.4 4.5 2.9 4.1 4.4 3.5
0.0 0.0 0.0 0.0 0.0 0.1 0.0 0.1 1.2 1.2 1.0 0.5 0.5 1.5 1.5 2.0 4.6 6.4 6.3 5.1 4.0 3.6
0.0 0.0 0.3 0.9 0.7 0.6 0.6 0.3 0.0 0.1 0.2 0.0 0.5 0.5 0.4 0.5 0.5 1.9 5.0 5.5 4.8 4.1
0.4 0.6 2.5 2.1 1.5 1.1 0.5 0.1 0.0 0.0 0.0 0.0 0.0 0.1 0.2 0.1 0.2 0.8 0.7 1.4 3.2 4.0
3.0 3.4 3.0 2.2 1.6 0.7 0.3 0.1 0.0 0.1 0.0 0.0 0.0 0.0 0.3 0.2 1.0 2.2 0.6 0.2 1.1 3.8
4.0 3.4 2.4 1.7 1.0 0.5 0.2 0.0 0.1 0.1 0.0 0.0 0.0 0.0 0.4 0.4 1.4 2.9 3.8 2.4 2.6 2.0

GFSNIL_prec_kuchsnow_192.txt.gz
Snowfall_Accumulation
0.0 0.0 0.0 0.0 0.0 0.0 0.0 0.0 0.0 0.0 0.0 0.0 0.0 0.0 0.0 0.0 0.0 0.0 0.0 0.0 0.0 0.8
0.0 0.0 0.0 0.0 0.0 0.0 0.0 0.0 0.0 0.0 0.0 0.0 0.0 0.0 0.0 0.0 0.0 0.0 0.0 0.0 0.0 0.0
0.0 0.0 0.0 0.0 0.0 0.0 0.0 0.0 0.0 0.0 0.0 0.0 0.0 0.0 0.0 0.0 0.0 0.0 0.0 0.0 0.0 0.0
0.0 0.0 0.0 0.0 0.0 0.0 0.0 0.0 0.0 0.0 0.0 0.0 0.0 0.0 0.0 0.0 0.0 0.0 0.0 0.0 0.0 0.0
0.0 0.0 0.2 0.0 0.0 0.0 0.0 0.0 0.0 0.0 0.0 0.0 0.1 0.1 0.2 0.2 0.1 0.1 0.1 0.1 0.0 0.0
0.0 0.7 0.3 0.4 0.4 0.2 0.3 0.1 0.2 0.2 0.3 0.3 0.2 0.6 0.9 0.7 0.0 0.4 0.6 0.4 0.3 0.1
0.4 0.6 1.0 1.3 0.6 0.6 0.7 0.4 0.3 0.4 0.5 0.4 0.5 1.8 1.5 1.7 1.3 1.3 1.6 1.6 1.3 0.9
0.0 0.1 0.2 0.2 0.5 1.0 0.8 0.5 0.4 0.8 0.7 0.9 1.2 2.0 3.6 3.6 3.6 2.9 4.3 3.8 2.9 2.8
0.0 0.0 0.1 0.1 0.1 0.1 0.8 0.8 0.7 0.5 0.4 1.1 1.7 2.5 3.0 4.3 5.4 4.5 2.9 4.1 4.4 3.5
0.0 0.0 0.0 0.0 0.0 0.1 0.0 0.1 1.2 1.2 1.0 0.5 0.5 1.5 1.5 2.0 4.6 6.4 6.3 5.1 4.0 3.6
0.0 0.0 0.3 0.9 1.2 1.3 1.1 0.7 0.4 0.4 0.5 0.2 0.5 0.6 0.4 0.5 0.5 1.9 5.0 5.5 4.8 4.1
0.4 0.6 2.5 2.9 2.9 2.5 1.9 1.5 1.0 0.7 0.4 0.1 0.1 0.2 0.3 0.1 0.2 0.8 0.7 1.4 3.2 4.0
3.0 3.4 4.0 3.6 3.4 2.5 1.7 1.2 0.7 0.6 0.3 0.1 0.1 0.0 0.3 0.2 1.0 2.2 0.6 0.2 1.1 3.8
5.3 5.3 4.5 3.8 2.8 2.0 1.2 0.6 0.6 0.4 0.2 0.1 0.0 0.0 0.4 0.4 1.4 2.9 3.8 2.4 2.6 2.0

GFSNIL_prec_kuchsnow_195.txt.gz
Snowfall_Accumulation
0.0 0.0 0.0 0.0 0.0 0.0 0.0 0.0 0.0 0.0 0.0 0.0 0.0 0.0 0.0 0.0 0.0 0.0 0.0 0.0 0.0 0.8
0.0 0.0 0.0 0.0 0.0 0.0 0.0 0.0 0.0 0.0 0.0 0.0 0.0 0.0 0.0 0.0 0.0 0.0 0.0 0.0 0.0 0.0
0.0 0.0 0.0 0.0 0.0 0.0 0.0 0.0 0.0 0.0 0.0 0.0 0.0 0.0 0.0 0.0 0.0 0.0 0.0 0.0 0.0 0.0
0.0 0.0 0.0 0.0 0.0 0.0 0.0 0.0 0.0 0.0 0.0 0.0 0.0 0.0 0.0 0.0 0.0 0.0 0.0 0.0 0.0 0.0
0.0 0.0 0.2 0.0 0.0 0.0 0.0 0.0 0.0 0.0 0.0 0.0 0.1 0.1 0.2 0.2 0.1 0.1 0.1 0.1 0.0 0.0
0.0 0.7 0.3 0.4 0.4 0.2 0.3 0.1 0.2 0.2 0.3 0.3 0.2 0.6 0.9 0.7 0.0 0.4 0.6 0.4 0.3 0.1
0.4 0.6 1.0 1.3 0.6 0.6 0.7 0.4 0.3 0.4 0.5 0.4 0.5 1.8 1.5 1.7 1.3 1.3 1.6 1.6 1.3 0.9
0.0 0.1 0.2 0.2 0.5 1.0 0.8 0.5 0.4 0.8 0.7 0.9 1.2 2.0 3.6 3.6 3.6 2.9 4.3 3.8 2.9 2.8
0.0 0.0 0.1 0.1 0.1 0.1 0.8 0.8 0.7 0.5 0.4 1.1 1.7 2.5 3.0 4.3 5.4 4.5 2.9 4.1 4.4 3.5
0.0 0.0 0.0 0.0 0.0 0.1 0.0 0.1 1.2 1.2 1.0 0.5 0.5 1.6 1.7 2.2 4.6 6.4 6.3 5.1 4.0 3.6
0.0 0.0 0.3 0.9 1.2 1.3 1.1 0.7 0.4 0.9 1.2 1.0 1.3 1.2 0.8 0.6 0.5 1.9 5.0 5.5 4.8 4.1
0.4 0.6 2.5 2.9 2.9 2.5 1.9 2.4 2.2 1.8 1.7 1.2 0.9 0.9 0.6 0.1 0.2 0.8 0.7 1.4 3.2 4.0
3.0 3.4 4.0 3.6 3.4 3.2 2.7 2.6 1.9 1.9 1.1 0.8 0.7 0.8 0.7 0.2 1.0 2.2 0.6 0.2 1.1 3.8
5.3 5.3 4.5 4.9 4.3 3.8 3.2 2.2 1.8 1.4 0.9 0.6 0.4 0.6 0.7 0.4 1.4 2.9 3.8 2.4 2.6 2.0

GFSNIL_prec_kuchsnow_198.txt.gz
Snowfall_Accumulation
0.0 0.0 0.0 0.0 0.0 0.0 0.0 0.0 0.0 0.0 0.0 0.0 0.0 0.0 0.0 0.0 0.0 0.0 0.0 0.0 0.0 0.8
0.0 0.0 0.0 0.0 0.0 0.0 0.0 0.0 0.0 0.0 0.0 0.0 0.0 0.0 0.0 0.0 0.0 0.0 0.0 0.0 0.0 0.0
0.0 0.0 0.0 0.0 0.0 0.0 0.0 0.0 0.0 0.0 0.0 0.0 0.0 0.0 0.0 0.0 0.0 0.0 0.0 0.0 0.0 0.0
0.0 0.0 0.0 0.0 0.0 0.0 0.0 0.0 0.0 0.0 0.0 0.0 0.0 0.0 0.0 0.0 0.0 0.0 0.0 0.0 0.0 0.0
0.0 0.0 0.2 0.0 0.0 0.0 0.0 0.0 0.0 0.0 0.0 0.0 0.1 0.1 0.2 0.2 0.1 0.1 0.1 0.1 0.0 0.0
0.0 0.7 0.3 0.4 0.4 0.2 0.3 0.1 0.2 0.2 0.3 0.3 0.2 0.6 0.9 0.7 0.0 0.4 0.6 0.4 0.3 0.1
0.4 0.6 1.0 1.3 0.6 0.6 0.7 0.4 0.3 0.4 0.5 0.4 0.5 1.8 1.5 1.7 1.3 1.3 1.6 1.6 1.3 0.9
0.0 0.1 0.2 0.2 0.5 1.0 0.8 0.5 0.4 0.8 0.7 0.9 1.2 2.0 3.6 3.6 3.6 2.9 4.4 3.8 2.9 3.0
0.0 0.0 0.1 0.1 0.1 0.1 0.8 0.8 0.7 0.5 0.4 1.1 1.7 2.5 3.0 4.3 5.4 4.5 3.1 4.1 4.6 3.6
0.0 0.0 0.0 0.0 0.0 0.1 0.0 0.1 1.2 1.2 1.0 0.5 0.5 1.6 1.9 2.4 4.9 6.7 6.7 5.3 4.1 3.7
0.0 0.0 0.3 0.9 1.2 1.3 1.1 0.7 0.4 1.0 1.4 1.7 2.0 1.8 1.4 1.2 1.0 2.2 5.0 5.5 4.8 4.1
0.4 0.6 2.5 2.9 2.9 2.5 1.9 2.4 2.2 2.6 3.0 2.4 2.1 1.7 1.3 0.6 0.4 0.8 0.7 1.4 3.2 4.0
3.0 3.4 4.0 3.6 3.4 3.2 2.7 3.3 3.0 3.2 2.4 1.4 1.7 1.6 1.2 0.5 1.2 2.2 0.6 0.2 1.1 3.8
5.3 5.3 4.5 4.9 4.3 3.8 4.3 3.7 3.4 2.8 2.0 1.4 1.3 1.5 1.2 0.6 1.5 2.9 3.8 2.4 2.6 2.0

GFSNIL_prec_kuchsnow_201.txt.gz
Snowfall_Accumulation
0.0 0.0 0.0 0.0 0.0 0.0 0.0 0.0 0.0 0.0 0.0 0.0 0.0 0.0 0.0 0.0 0.0 0.0 0.0 0.0 0.0 0.8
0.0 0.0 0.0 0.0 0.0 0.0 0.0 0.0 0.0 0.0 0.0 0.0 0.0 0.0 0.0 0.0 0.0 0.0 0.0 0.0 0.0 0.0
0.0 0.0 0.0 0.0 0.0 0.0 0.0 0.0 0.0 0.0 0.0 0.0 0.0 0.0 0.0 0.0 0.0 0.0 0.0 0.0 0.0 0.0
0.0 0.0 0.0 0.0 0.0 0.0 0.0 0.0 0.0 0.0 0.0 0.0 0.0 0.0 0.0 0.0 0.0 0.0 0.0 0.0 0.0 0.0
0.0 0.0 0.2 0.0 0.0 0.0 0.0 0.0 0.0 0.0 0.0 0.0 0.1 0.1 0.2 0.2 0.1 0.1 0.1 0.1 0.0 0.0
0.0 0.7 0.3 0.4 0.4 0.2 0.3 0.1 0.2 0.2 0.3 0.3 0.2 0.6 0.9 0.7 0.0 0.4 0.6 0.4 0.3 0.1
0.4 0.6 1.0 1.3 0.6 0.6 0.7 0.4 0.3 0.4 0.5 0.4 0.5 1.8 1.5 1.7 1.3 1.3 1.6 1.6 1.3 0.9
0.0 0.1 0.2 0.2 0.5 1.0 0.8 0.5 0.4 0.8 0.7 0.9 1.2 2.0 3.6 3.6 3.6 2.9 4.4 3.8 2.9 3.0
0.0 0.0 0.1 0.1 0.1 0.1 0.8 0.8 0.7 0.5 0.4 1.1 1.7 2.5 3.0 4.3 5.4 4.5 3.1 4.1 4.6 3.6
0.0 0.0 0.0 0.0 0.0 0.1 0.0 0.1 1.2 1.2 1.0 0.5 0.5 1.6 1.9 2.4 4.9 6.7 6.8 5.3 4.1 3.7
0.0 0.0 0.3 0.9 1.2 1.3 1.1 0.7 0.4 1.0 1.4 1.8 2.1 1.8 1.4 1.6 1.4 2.8 5.6 5.8 4.9 4.1
0.4 0.6 2.5 2.9 2.9 2.5 1.9 2.4 2.2 2.6 3.3 2.8 2.7 2.3 1.8 1.1 1.1 1.5 1.1 1.6 3.3 4.0
3.0 3.4 4.0 3.6 3.4 3.2 2.7 3.3 3.0 3.9 2.9 1.9 2.5 2.0 1.6 1.0 1.7 2.8 1.0 0.5 1.2 3.8
5.3 5.3 4.5 4.9 4.3 3.8 4.3 3.7 4.0 3.6 2.7 2.1 2.0 2.2 1.7 1.0 2.0 3.2 4.1 2.6 2.9 2.1

GFSNIL_prec_kuchsnow_204.txt.gz
Snowfall_Accumulation
0.0 0.0 0.0 0.0 0.0 0.0 0.0 0.0 0.0 0.0 0.0 0.0 0.0 0.0 0.0 0.0 0.0 0.0 0.0 0.0 0.0 0.8
0.0 0.0 0.0 0.0 0.0 0.0 0.0 0.0 0.0 0.0 0.0 0.0 0.0 0.0 0.0 0.0 0.0 0.0 0.0 0.0 0.0 0.0
0.0 0.0 0.0 0.0 0.0 0.0 0.0 0.0 0.0 0.0 0.0 0.0 0.0 0.0 0.0 0.0 0.0 0.0 0.0 0.0 0.0 0.0
0.0 0.0 0.0 0.0 0.0 0.0 0.0 0.0 0.0 0.0 0.0 0.0 0.0 0.0 0.0 0.0 0.0 0.0 0.0 0.0 0.0 0.0
0.0 0.0 0.2 0.0 0.0 0.0 0.0 0.0 0.0 0.0 0.0 0.0 0.1 0.1 0.2 0.2 0.1 0.1 0.1 0.1 0.0 0.0
0.0 0.7 0.3 0.4 0.4 0.2 0.3 0.1 0.2 0.2 0.3 0.3 0.2 0.6 0.9 0.7 0.0 0.4 0.6 0.4 0.3 0.1
0.4 0.6 1.0 1.3 0.6 0.6 0.7 0.4 0.3 0.4 0.5 0.4 0.5 1.8 1.5 1.7 1.3 1.3 1.6 1.6 1.3 0.9
0.0 0.1 0.2 0.2 0.5 1.0 0.8 0.5 0.4 0.8 0.7 0.9 1.2 2.0 3.6 3.6 3.6 2.9 4.4 3.9 2.9 3.0
0.0 0.0 0.1 0.1 0.1 0.1 0.8 0.8 0.7 0.5 0.4 1.1 1.7 2.5 3.0 4.3 5.4 4.5 3.1 4.1 4.6 3.6
0.0 0.0 0.0 0.0 0.0 0.1 0.0 0.1 1.2 1.2 1.0 0.5 0.5 1.6 1.9 2.4 4.9 6.7 6.8 5.3 4.1 3.7
0.0 0.0 0.3 0.9 1.2 1.3 1.1 0.7 0.4 1.0 1.4 1.8 2.1 1.8 1.4 1.6 1.5 2.8 5.6 5.8 4.9 4.1
0.4 0.6 2.5 2.9 2.9 2.5 1.9 2.4 2.2 2.6 3.3 2.8 2.7 2.3 2.0 1.2 1.1 1.5 1.1 1.6 3.7 4.2
3.0 3.4 4.0 3.6 3.4 3.2 2.7 3.3 3.0 3.9 2.9 1.9 3.0 2.4 1.8 1.1 1.7 2.8 1.0 0.8 1.5 4.0
5.3 5.3 4.5 4.9 4.3 3.8 4.3 3.7 4.0 3.6 2.7 2.5 2.6 2.6 1.9 1.2 2.2 3.4 4.3 2.8 3.2 2.4

GFSNIL_prec_kuchsnow_207.txt.gz
Snowfall_Accumulation
0.0 0.0 0.0 0.0 0.0 0.0 0.0 0.0 0.0 0.0 0.0 0.0 0.0 0.0 0.0 0.0 0.0 0.0 0.0 0.0 0.0 0.8
0.0 0.0 0.0 0.0 0.0 0.0 0.0 0.0 0.0 0.0 0.0 0.0 0.0 0.0 0.0 0.0 0.0 0.0 0.0 0.0 0.0 0.0
0.0 0.0 0.0 0.0 0.0 0.0 0.0 0.0 0.0 0.0 0.0 0.0 0.0 0.0 0.0 0.0 0.0 0.0 0.0 0.0 0.0 0.0
0.0 0.0 0.0 0.0 0.0 0.0 0.0 0.0 0.0 0.0 0.0 0.0 0.0 0.0 0.0 0.0 0.0 0.0 0.0 0.0 0.0 0.0
0.0 0.0 0.2 0.0 0.0 0.0 0.0 0.0 0.0 0.0 0.0 0.0 0.1 0.1 0.2 0.2 0.1 0.1 0.1 0.1 0.0 0.0
0.0 0.7 0.3 0.4 0.4 0.2 0.3 0.1 0.2 0.2 0.3 0.3 0.2 0.6 0.9 0.7 0.0 0.4 0.6 0.4 0.3 0.1
0.4 0.6 1.0 1.3 0.6 0.6 0.7 0.4 0.3 0.4 0.5 0.4 0.5 1.8 1.5 1.7 1.3 1.3 1.6 1.6 1.3 0.9
0.0 0.1 0.2 0.2 0.5 1.0 0.8 0.5 0.4 0.8 0.7 0.9 1.2 2.0 3.6 3.6 3.6 2.9 4.4 3.9 2.9 3.0
0.0 0.0 0.1 0.1 0.1 0.1 0.8 0.8 0.7 0.5 0.4 1.1 1.7 2.5 3.0 4.3 5.4 4.5 3.1 4.1 4.7 3.6
0.0 0.0 0.0 0.0 0.0 0.1 0.0 0.1 1.2 1.2 1.0 0.5 0.5 1.6 1.9 2.4 4.9 6.7 6.8 5.3 4.3 3.8
0.0 0.0 0.3 0.9 1.2 1.3 1.1 0.7 0.4 1.0 1.4 1.8 2.1 1.8 1.4 1.6 1.5 2.8 5.6 5.8 4.9 4.2
0.4 0.6 2.5 2.9 2.9 2.5 1.9 2.4 2.2 2.6 3.3 2.8 2.7 2.3 2.0 1.2 1.4 1.7 1.3 1.6 3.7 4.2
3.0 3.4 4.0 3.6 3.4 3.2 2.7 3.3 3.0 3.9 2.9 1.9 3.0 2.4 1.8 1.4 2.0 3.0 1.2 0.8 1.5 4.0
5.3 5.3 4.5 4.9 4.3 3.8 4.3 3.7 4.0 3.6 2.7 2.5 2.6 2.9 1.9 1.4 2.4 3.5 4.3 2.8 3.2 2.4

GFSNIL_prec_kuchsnow_210.txt.gz
Snowfall_Accumulation
0.0 0.0 0.0 0.0 0.0 0.0 0.0 0.0 0.0 0.0 0.0 0.0 0.0 0.0 0.0 0.0 0.0 0.0 0.0 0.0 0.0 0.8
0.0 0.0 0.0 0.0 0.0 0.0 0.0 0.0 0.0 0.0 0.0 0.0 0.0 0.0 0.0 0.0 0.0 0.0 0.0 0.0 0.0 0.0
0.0 0.0 0.0 0.0 0.0 0.0 0.0 0.0 0.0 0.0 0.0 0.0 0.0 0.0 0.0 0.0 0.0 0.0 0.0 0.0 0.0 0.0
0.0 0.0 0.0 0.0 0.0 0.0 0.0 0.0 0.0 0.0 0.0 0.0 0.0 0.0 0.0 0.0 0.0 0.0 0.0 0.0 0.0 0.0
0.0 0.0 0.2 0.0 0.0 0.0 0.0 0.0 0.0 0.0 0.0 0.0 0.1 0.1 0.2 0.2 0.1 0.1 0.1 0.1 0.0 0.0
0.0 0.7 0.3 0.4 0.4 0.2 0.3 0.1 0.2 0.2 0.3 0.3 0.2 0.6 0.9 0.7 0.0 0.4 0.6 0.4 0.3 0.1
0.4 0.6 1.0 1.3 0.6 0.6 0.7 0.4 0.3 0.4 0.5 0.4 0.5 1.8 1.5 1.7 1.3 1.3 1.6 1.6 1.3 0.9
0.0 0.1 0.2 0.2 0.5 1.0 0.8 0.5 0.4 0.8 0.7 0.9 1.2 2.0 3.6 3.6 3.6 2.9 4.4 3.9 2.9 3.0
0.0 0.0 0.1 0.1 0.1 0.1 0.8 0.8 0.7 0.5 0.4 1.1 1.7 2.5 3.0 4.3 5.4 4.5 3.1 4.1 4.7 3.6
0.0 0.0 0.0 0.0 0.0 0.1 0.0 0.1 1.2 1.2 1.0 0.5 0.5 1.6 1.9 2.4 4.9 6.7 6.8 5.3 4.3 4.0
0.0 0.0 0.3 0.9 1.2 1.3 1.1 0.7 0.4 1.0 1.4 1.8 2.1 1.8 1.4 1.6 1.5 2.8 5.6 5.8 4.9 4.2
0.4 0.6 2.5 2.9 2.9 2.5 1.9 2.4 2.2 2.6 3.3 2.8 2.7 2.3 2.0 1.2 1.4 1.7 1.5 1.8 3.7 4.2
3.0 3.4 4.0 3.6 3.4 3.2 2.7 3.3 3.0 3.9 2.9 1.9 3.0 2.4 1.8 1.4 2.0 3.2 1.3 0.9 1.6 4.0
5.3 5.3 4.5 4.9 4.3 3.8 4.3 3.7 4.0 3.6 2.7 2.5 2.6 2.9 1.9 1.4 2.6 3.6 4.5 2.9 3.3 2.4

GFSNIL_prec_kuchsnow_213.txt.gz
Snowfall_Accumulation
0.0 0.0 0.0 0.0 0.0 0.0 0.0 0.0 0.0 0.0 0.0 0.0 0.0 0.0 0.0 0.0 0.0 0.0 0.0 0.0 0.0 0.8
0.0 0.0 0.0 0.0 0.0 0.0 0.0 0.0 0.0 0.0 0.0 0.0 0.0 0.0 0.0 0.0 0.0 0.0 0.0 0.0 0.0 0.0
0.0 0.0 0.0 0.0 0.0 0.0 0.0 0.0 0.0 0.0 0.0 0.0 0.0 0.0 0.0 0.0 0.0 0.0 0.0 0.0 0.0 0.0
0.0 0.0 0.0 0.0 0.0 0.0 0.0 0.0 0.0 0.0 0.0 0.0 0.0 0.0 0.0 0.0 0.0 0.0 0.0 0.0 0.0 0.0
0.0 0.0 0.2 0.0 0.0 0.0 0.0 0.0 0.0 0.0 0.0 0.0 0.1 0.1 0.2 0.2 0.1 0.1 0.1 0.1 0.0 0.0
0.0 0.7 0.3 0.4 0.4 0.2 0.3 0.1 0.2 0.2 0.3 0.3 0.2 0.6 0.9 0.7 0.0 0.4 0.6 0.4 0.3 0.1
0.4 0.6 1.0 1.3 0.6 0.6 0.7 0.4 0.3 0.4 0.5 0.4 0.5 1.8 1.5 1.7 1.3 1.3 1.6 1.6 1.3 0.9
0.0 0.1 0.2 0.2 0.5 1.0 0.8 0.5 0.4 0.8 0.7 0.9 1.2 2.0 3.6 3.6 3.6 2.9 4.4 3.9 2.9 3.0
0.0 0.0 0.1 0.1 0.1 0.1 0.8 0.8 0.7 0.5 0.4 1.1 1.7 2.5 3.0 4.3 5.4 4.5 3.1 4.1 4.7 3.6
0.0 0.0 0.0 0.0 0.0 0.1 0.0 0.1 1.2 1.2 1.0 0.5 0.5 1.6 1.9 2.4 4.9 6.7 6.8 5.3 4.3 4.0
0.0 0.0 0.3 0.9 1.2 1.3 1.1 0.7 0.4 1.0 1.4 1.8 2.1 1.8 1.4 1.6 1.5 2.8 5.6 5.8 4.9 4.2
0.4 0.6 2.5 2.9 2.9 2.5 1.9 2.4 2.2 2.6 3.3 2.8 2.7 2.3 2.0 1.2 1.4 1.7 1.5 1.8 3.7 4.2
3.0 3.4 4.0 3.6 3.4 3.2 2.7 3.3 3.0 3.9 2.9 1.9 3.0 2.4 1.8 1.4 2.0 3.2 1.3 0.9 1.8 4.1
5.3 5.3 4.5 4.9 4.3 3.8 4.3 3.7 4.0 3.6 2.7 2.5 2.6 2.9 1.9 1.4 2.6 3.6 5.1 3.2 3.5 2.5

GFSNIL_prec_kuchsnow_216.txt.gz
Snowfall_Accumulation
0.0 0.0 0.0 0.0 0.0 0.0 0.0 0.0 0.0 0.0 0.0 0.0 0.0 0.0 0.0 0.0 0.0 0.0 0.0 0.0 0.0 0.8
0.0 0.0 0.0 0.0 0.0 0.0 0.0 0.0 0.0 0.0 0.0 0.0 0.0 0.0 0.0 0.0 0.0 0.0 0.0 0.0 0.0 0.0
0.0 0.0 0.0 0.0 0.0 0.0 0.0 0.0 0.0 0.0 0.0 0.0 0.0 0.0 0.0 0.0 0.0 0.0 0.0 0.0 0.0 0.0
0.0 0.0 0.0 0.0 0.0 0.0 0.0 0.0 0.0 0.0 0.0 0.0 0.0 0.0 0.0 0.0 0.0 0.0 0.0 0.0 0.0 0.0
0.0 0.0 0.2 0.0 0.0 0.0 0.0 0.0 0.0 0.0 0.0 0.0 0.1 0.1 0.2 0.2 0.1 0.1 0.1 0.1 0.0 0.0
0.0 0.7 0.3 0.4 0.4 0.2 0.3 0.1 0.2 0.2 0.3 0.3 0.2 0.6 0.9 0.7 0.0 0.4 0.6 0.4 0.3 0.1
0.4 0.6 1.0 1.3 0.6 0.6 0.7 0.4 0.3 0.4 0.5 0.4 0.5 1.8 1.5 1.7 1.3 1.3 1.6 1.6 1.3 0.9
0.0 0.1 0.2 0.2 0.5 1.0 0.8 0.5 0.4 0.8 0.7 0.9 1.2 2.0 3.6 3.6 3.6 2.9 4.4 3.9 2.9 3.0
0.0 0.0 0.1 0.1 0.1 0.1 0.8 0.8 0.7 0.5 0.4 1.1 1.7 2.5 3.0 4.3 5.4 4.5 3.1 4.1 4.7 3.6
0.0 0.0 0.0 0.0 0.0 0.1 0.0 0.1 1.2 1.2 1.0 0.5 0.5 1.6 1.9 2.4 4.9 6.7 6.8 5.3 4.3 4.0
0.0 0.0 0.3 0.9 1.2 1.3 1.1 0.7 0.4 1.0 1.4 1.8 2.1 1.8 1.4 1.6 1.5 2.8 5.6 5.8 4.9 4.2
0.4 0.6 2.5 2.9 2.9 2.5 1.9 2.4 2.2 2.6 3.3 2.8 2.7 2.3 2.0 1.2 1.4 1.7 1.5 1.8 3.7 4.2
3.0 3.4 4.0 3.6 3.4 3.2 2.7 3.3 3.0 3.9 2.9 1.9 3.0 2.4 1.8 1.4 2.0 3.2 1.3 0.9 1.8 4.1
5.3 5.3 4.5 4.9 4.3 3.8 4.3 3.7 4.0 3.6 2.7 2.5 2.6 2.9 1.9 1.4 2.6 3.6 6.5 4.2 4.0 2.9

GFSNIL_prec_kuchsnow_219.txt.gz
Snowfall_Accumulation
0.0 0.0 0.0 0.0 0.0 0.0 0.0 0.0 0.0 0.0 0.0 0.0 0.0 0.0 0.0 0.0 0.0 0.0 0.0 0.0 0.0 0.8
0.0 0.0 0.0 0.0 0.0 0.0 0.0 0.0 0.0 0.0 0.0 0.0 0.0 0.0 0.0 0.0 0.0 0.0 0.0 0.0 0.0 0.0
0.0 0.0 0.0 0.0 0.0 0.0 0.0 0.0 0.0 0.0 0.0 0.0 0.0 0.0 0.0 0.0 0.0 0.0 0.0 0.0 0.0 0.0
0.0 0.0 0.0 0.0 0.0 0.0 0.0 0.0 0.0 0.0 0.0 0.0 0.0 0.0 0.0 0.0 0.0 0.0 0.0 0.0 0.0 0.0
0.0 0.0 0.2 0.0 0.0 0.0 0.0 0.0 0.0 0.0 0.0 0.0 0.1 0.1 0.2 0.2 0.1 0.1 0.1 0.1 0.0 0.0
0.0 0.7 0.3 0.4 0.4 0.2 0.3 0.1 0.2 0.2 0.3 0.3 0.2 0.6 0.9 0.7 0.0 0.4 0.6 0.4 0.3 0.1
0.4 0.6 1.0 1.3 0.6 0.6 0.7 0.4 0.3 0.4 0.5 0.4 0.5 1.8 1.5 1.7 1.3 1.3 1.6 1.6 1.3 0.9
0.0 0.1 0.2 0.2 0.5 1.0 0.8 0.5 0.4 0.8 0.7 0.9 1.2 2.0 3.6 3.6 3.6 2.9 4.4 3.9 2.9 3.0
0.0 0.0 0.1 0.1 0.1 0.1 0.8 0.8 0.7 0.5 0.4 1.1 1.7 2.5 3.0 4.3 5.4 4.5 3.1 4.1 4.7 3.6
0.0 0.0 0.0 0.0 0.0 0.1 0.0 0.1 1.2 1.2 1.0 0.5 0.5 1.6 1.9 2.4 4.9 6.7 6.8 5.3 4.3 4.0
0.0 0.0 0.3 0.9 1.2 1.3 1.1 0.7 0.4 1.0 1.4 1.8 2.1 1.8 1.4 1.6 1.5 2.8 5.6 5.8 4.9 4.2
0.4 0.6 2.5 2.9 2.9 2.5 1.9 2.4 2.2 2.6 3.3 2.8 2.7 2.3 2.0 1.2 1.4 1.7 1.5 1.8 3.7 4.2
3.0 3.4 4.0 3.6 3.4 3.2 2.7 3.3 3.0 3.9 2.9 1.9 3.0 2.4 1.8 1.4 2.0 3.2 1.3 0.9 1.8 4.1
5.3 5.3 4.5 4.9 4.3 3.8 4.3 3.7 4.0 3.6 2.7 2.5 2.6 2.9 1.9 1.4 2.6 3.6 6.5 4.2 5.5 4.1